Location: C.E.K. Mees Observatory
(42.7003°N, 77.4088°W)
Time: 20:29:30
(UTC-05:00)

Vanguard 3 - Pass Details

Date: 30 June 2018
Orbit: 508 x 3264 km, 33.4° (Epoch: 15 December)

Event Time Altitude Azimuth Distance (km) Brightness Sun altitude
Rises 07:50:26 0° 254° (WSW) 3,841 10.0 22.1°
Reaches altitude 10° 07:55:02 10° 225° (SW) 3,421 9.9 22.9°
Maximum altitude 07:58:12 12° 204° (SSW) 3,604 10.2 23.5°
Drops below altitude 10° 08:01:57 10° 183° (S) 4,202 10.7 24.1°
Sets 08:09:33 0° 159° (SSE) 5,961 11.7 25.5°
